Location: Canyam�s
(41.5996°N, 2.4450°E)
Time: 23:35:14
(UTC+00:00)

Cosmos 1980 Rocket - Pass Details

Date: 06 June 2020
Orbit: 828 x 851 km, 71.0° (Epoch: 05 July)

Event Time Altitude Azimuth Distance (km) Brightness Sun altitude
Exits shadow 23:10:10 14° 93° (E) 2,182 4.2 -25.0°
Drops below altitude 10° 23:12:35 10° 67° (ENE) 2,455 4.7 -25.1°
Sets 23:16:15 0° 44° (NE) 3,401 5.9 -25.2°
